Wind_Speed
22 23 23 24 25 27 28 28 28 25 25 23 25 27 28 29 29 30 31 32 33 34 36 38 40 41 41 42 43 43 43 43 43 43 42 42 41 41 40 39 38 37 37 36
22 24 25 25 25 26 27 27 27 26 22 22 27 30 30 29 29 30 30 32 32 33 34 35 37 38 39 40 40 41 41 41 40 40 40 39 38 37 37 36 35 34 34 33
24 25 26 25 23 26 26 26 26 25 22 25 27 29 30 30 30 30 30 31 32 33 33 33 34 35 36 37 37 38 38 38 37 36 36 35 34 34 34 33 32 32 31 30
25 26 26 23 23 25 25 24 25 25 24 25 26 27 27 28 28 29 29 30 30 31 31 32 32 32 33 33 34 34 34 33 33 32 32 32 32 32 31 30 30 30 29 29
26 26 25 24 24 24 24 23 25 25 24 25 26 25 24 26 27 29 30 30 30 30 30 30 30 30 30 30 30 30 30 30 30 30 30 30 30 29 29 28 28 28 28 28
26 27 25 24 24 25 25 25 25 25 25 25 25 24 24 26 27 27 28 28 28 28 28 28 28 28 28 28 28 28 28 28 28 28 28 28 28 27 27 27 27 27 27 27
26 26 25 24 24 24 25 24 24 24 24 24 24 24 25 25 25 25 25 25 26 26 27 27 27 27 27 27 27 27 26 26 26 27 27 27 26 26 26 26 26 26 26 26
26 26 24 23 24 25 24 24 23 23 23 22 23 23 24 24 24 24 23 24 24 25 25 25 25 25 26 26 26 26 26 26 26 26 26 26 26 26 26 26 26 25 25 26
25 24 23 23 23 23 24 23 23 22 22 22 22 22 22 22 23 23 24 24 24 24 24 25 25 25 25 25 26 26 26 26 26 26 26 26 26 26 26 26 26 26 26 26
23 23 24 23 23 23 23 23 23 23 23 22 22 21 22 22 22 22 23 24 24 23 24 24 24 25 25 25 25 26 26 25 26 26 26 26 26 26 26 26 26 27 27 28
23 23 24 24 24 24 24 23 23 23 23 23 22 22 22 22 22 22 22 23 23 24 24 24 24 24 25 25 25 25 26 26 26 26 26 26 26 26 27 27 28 28 29 30
23 23 24 25 25 25 25 24 23 23 23 24 24 23 23 23 22 22 22 22 23 23 24 24 24 25 26 26 26 26 27 27 28 27 27 27 27 27 28 29 30 30 31 32
25 25 25 25 26 26 26 26 25 24 24 25 25 25 25 25 24 24 24 24 24 24 24 24 25 26 26 26 26 27 28 28 28 29 29 29 29 29 30 30 31 32 32 33
27 27 27 27 27 28 28 27 27 27 26 26 27 27 27 27 26 26 26 26 26 26 27 27 27 27 28 28 28 28 29 29 29 30 30 30 30 30 31 31 32 32 33 34
27 28 29 29 29 30 30 29 29 28 28 28 28 28 28 28 28 28 28 28 29 29 29 29 29 29 29 29 30 30 30 30 30 31 31 31 32 32 33 33 33 34 34 35
26 28 28 29 29 29 30 30 29 29 29 29 29 29 29 29 29 29 29 29 29 30 30 30 30 30 30 30 30 31 31 31 32 32 33 33 33 34 34 34 35 35 36 37
24 25 26 27 28 29 29 29 29 29 28 28 28 29 29 30 30 30 30 30 30 30 31 31 31 31 31 31 31 32 32 32 32 33 33 34 35 35 35 36 36 36 37 38
19 21 22 23 24 25 26 27 27 28 27 27 28 28 28 29 29 30 30 31 31 32 32 32 32 33 33 33 32 33 33 33 33 33 34 34 35 35 35 35 36 37 37 38
15 16 16 17 18 19 21 22 24 26 26 26 26 27 28 28 29 29 30 31 31 31 32 32 32 32 33 33 33 33 33 33 33 33 34 34 34 34 35 35 36 36 37 37
14 14 14 15 16 17 18 19 21 22 24 25 26 26 26 27 28 28 29 30 30 30 31 31 31 31 32 32 33 33 33 33 33 34 34 34 35 35 35 35 36 36 36 37
15 15 15 16 16 17 18 19 20 20 21 22 23 23 24 24 25 26 26 27 28 29 29 30 30 31 31 32 32 33 33 33 34 34 34 35 35 35 35 35 35 36 36 37
17 17 17 17 17 17 17 18 19 19 20 20 21 22 22 23 24 25 25 26 27 28 28 29 29 30 30 31 32 32 32 33 34 34 34 34 35 35 35 35 35 35 35 36
19 19 19 19 19 19 19 20 20 19 19 19 20 21 22 23 23 24 24 25 26 26 27 28 28 29 30 31 31 32 32 32 33 33 33 34 34 34 34 34 34 34 34 34
21 21 21 21 21 21 21 21 21 21 21 21 20 21 21 21 22 22 23 23 24 25 25 26 27 27 28 29 30 31 31 31 32 32 33 33 33 33 33 33 34 34 34 35
23 22 22 22 23 23 23 23 22 22 21 21 21 21 22 22 23 23 24 24 24 24 25 25 26 26 27 28 28 29 30 30 31 31 32 32 32 32 33 33 33 34 34 35
26 25 24 24 24 24 24 24 24 24 24 23 24 24 24 24 24 24 24 24 25 25 26 26 27 27 28 28 29 29 29 30 30 30 31 31 32 32 33 33 34 34 35 35
29 28 28 28 27 27 27 27 27 27 26 26 26 26 26 27 27 27 27 27 27 27 28 28 29 29 29 29 29 29 29 29 29 30 30 30 31 31 32 32 33 34 34 35
Wind_Direction
231 232 234 236 239 241 244 249 252 250 248 247 250 249 247 247 246 245 245 245 246 248 249 250 250 251 252 253 255 256 258 260 262 264 266 269 270 271 272 274 276 277 278 279
236 238 240 241 244 247 249 252 254 253 250 248 247 248 248 247 246 245 245 245 246 247 249 250 250 251 252 253 254 256 258 260 262 264 265 266 268 269 271 273 274 274 276 278
241 243 245 245 247 250 252 253 253 252 249 249 251 251 250 249 248 246 246 246 247 247 248 250 251 251 252 253 254 255 257 259 260 261 263 264 266 267 269 270 272 273 275 277
245 245 248 251 250 251 254 255 255 255 253 254 254 253 253 253 251 249 250 249 249 249 250 251 251 252 252 253 253 255 256 257 257 259 261 262 263 265 267 269 270 271 273 276
248 248 248 250 252 253 255 256 256 257 256 255 256 256 255 254 251 249 250 251 250 250 250 251 252 252 252 252 252 252 253 254 256 258 259 261 262 264 265 267 268 270 272 276
250 252 251 251 252 255 256 257 256 258 257 256 256 255 252 251 251 251 251 252 252 251 251 252 252 252 251 251 251 252 253 254 256 257 258 259 261 263 264 266 268 271 273 276
250 252 252 254 254 255 256 258 257 257 257 256 254 253 252 253 254 253 252 252 251 251 251 252 251 251 251 252 252 252 254 255 256 257 259 261 261 262 263 266 269 271 274 277
249 252 254 255 255 255 256 257 257 256 256 255 254 253 252 253 253 252 251 251 251 250 251 252 251 251 252 252 253 254 254 255 257 259 260 261 262 262 264 266 269 271 275 278
248 251 254 254 254 254 254 255 255 255 254 255 255 253 252 252 252 251 250 250 250 251 251 251 251 252 253 254 254 254 255 256 258 260 261 262 263 263 264 266 269 273 276 280
249 249 251 253 253 254 254 255 254 253 253 254 255 254 253 254 254 253 251 250 250 251 252 252 253 253 255 256 256 256 257 258 260 261 262 262 263 264 265 267 270 274 278 281
249 249 250 252 253 254 254 255 254 253 252 252 253 253 254 254 254 255 253 251 251 252 254 254 253 254 255 256 257 258 259 260 261 262 263 263 264 266 267 269 272 276 280 283
249 250 252 251 253 253 254 254 253 253 252 251 251 252 253 254 254 255 255 253 252 253 255 257 257 257 258 257 257 259 260 261 262 264 265 265 267 268 270 273 275 278 281 284
250 252 254 254 254 254 253 253 253 253 254 253 253 253 253 254 255 256 256 256 256 257 258 259 260 261 260 260 261 262 263 263 264 265 266 267 268 270 273 275 278 280 282 285
253 253 253 255 255 255 255 255 254 254 255 255 254 254 255 255 256 257 257 257 258 258 259 261 262 262 262 262 263 264 265 265 266 267 268 269 270 272 274 277 279 282 284 286
256 255 255 255 257 257 256 255 255 255 256 256 255 256 256 256 256 257 258 258 259 260 261 261 262 262 263 264 263 264 265 266 267 268 270 271 272 274 276 278 280 283 285 287
260 258 257 256 257 256 254 254 255 255 256 256 256 257 258 259 259 259 260 260 261 261 262 262 261 263 264 265 265 266 267 268 268 269 271 272 274 275 277 279 281 283 284 287
263 260 258 257 257 254 252 252 253 254 256 257 258 259 259 260 262 262 262 262 262 263 263 263 263 264 265 266 267 267 268 268 269 271 272 273 274 276 277 279 281 283 284 286
267 263 261 260 258 255 251 251 252 253 254 256 258 260 261 262 263 264 264 264 264 264 264 264 264 264 265 266 267 268 268 268 270 271 272 274 275 276 278 280 281 282 284 286
274 269 265 261 256 253 252 252 252 252 254 256 260 263 265 265 265 265 265 265 265 265 264 264 265 265 265 265 266 268 268 269 271 272 273 274 275 277 278 280 281 283 285 286
275 271 268 264 260 258 257 256 256 257 259 260 263 265 266 266 266 266 266 266 266 266 265 265 265 265 266 266 267 268 268 270 271 273 274 275 276 277 279 280 282 283 284 286
273 270 268 266 263 262 262 261 260 261 263 265 266 266 267 268 268 269 268 268 267 267 267 266 266 266 266 267 267 268 269 270 271 273 274 275 276 277 279 280 281 283 285 286
272 270 269 267 265 266 267 265 264 263 265 266 267 268 269 270 271 271 271 271 270 270 269 268 267 268 268 269 269 270 270 271 272 273 275 275 276 277 278 279 281 282 284 286
268 268 268 267 266 265 266 266 265 264 266 268 269 270 272 272 273 274 274 273 272 271 269 269 269 270 271 271 271 271 272 273 274 275 275 276 277 277 278 279 281 283 284 286
270 268 267 267 267 266 266 266 266 266 266 267 269 271 273 275 276 276 276 276 275 274 273 272 272 272 273 273 273 273 274 275 275 276 277 277 278 279 279 280 281 283 284 286
270 268 267 266 266 265 265 267 268 268 267 268 270 272 275 277 277 277 277 277 277 276 276 275 274 275 276 276 276 276 276 277 277 277 278 278 279 279 280 280 282 283 285 287
269 269 268 268 267 266 265 265 266 267 267 269 271 273 276 277 277 278 278 278 278 277 277 277 277 278 278 278 279 279 279 278 278 279 279 279 280 280 280 281 282 284 286 288
268 267 268 268 268 266 265 266 266 267 268 270 272 274 276 277 278 278 279 279 279 279 278 279 279 280 280 280 280 280 280 280 280 281 281 281 281 282 282 283 284 286 287 289
Height
5642 5644 5646 5648 5650 5651 5653 5655 5656 5659 5661 5664 5663 5663 5665 5666 5668 5670 5672 5674 5676 5678 5680 5682 5684 5687 5689 5691 5693 5695 5697 5699 5700 5701 5702 5703 5703 5703 5703 5702 5701 5700 5699 5698
5637 5639 5640 5642 5645 5646 5647 5649 5650 5652 5655 5656 5655 5655 5657 5659 5661 5663 5664 5666 5668 5670 5672 5673 5675 5678 5680 5682 5684 5686 5688 5689 5691 5692 5692 5693 5693 5693 5693 5693 5692 5691 5690 5690
5633 5634 5635 5638 5641 5640 5642 5643 5644 5645 5649 5648 5648 5649 5650 5651 5653 5655 5657 5659 5660 5662 5663 5665 5667 5669 5671 5673 5675 5676 5678 5680 5681 5682 5683 5684 5684 5684 5684 5684 5683 5683 5682 5681
5627 5629 5630 5636 5634 5635 5636 5637 5638 5639 5641 5641 5641 5642 5643 5645 5647 5649 5650 5651 5653 5654 5656 5657 5659 5661 5662 5664 5666 5668 5669 5671 5672 5673 5674 5675 5675 5675 5675 5675 5675 5675 5674 5673
5621 5622 5625 5628 5628 5628 5630 5631 5631 5632 5633 5634 5635 5636 5638 5638 5639 5641 5642 5644 5645 5647 5648 5650 5651 5653 5655 5656 5658 5659 5661 5663 5664 5665 5666 5666 5667 5667 5667 5667 5667 5667 5666 5665
5615 5616 5618 5623 5622 5622 5624 5625 5625 5626 5627 5628 5629 5630 5632 5631 5632 5634 5635 5637 5638 5640 5641 5643 5644 5646 5647 5649 5650 5652 5653 5655 5656 5657 5658 5658 5659 5659 5659 5659 5659 5659 5658 5658
5608 5609 5612 5615 5615 5616 5619 5620 5619 5619 5620 5621 5622 5624 5625 5626 5627 5628 5629 5630 5632 5633 5635 5636 5637 5639 5640 5642 5643 5645 5646 5647 5648 5649 5650 5651 5651 5651 5652 5652 5652 5651 5651 5650
5602 5604 5608 5608 5609 5610 5611 5612 5612 5613 5614 5615 5616 5617 5619 5620 5621 5622 5623 5624 5625 5627 5628 5630 5631 5632 5634 5635 5636 5638 5639 5640 5641 5642 5643 5643 5644 5644 5644 5644 5644 5644 5643 5642
5597 5600 5601 5601 5602 5603 5604 5605 5606 5607 5609 5610 5610 5611 5613 5614 5615 5616 5617 5619 5620 5621 5622 5623 5625 5626 5627 5628 5630 5631 5632 5633 5634 5635 5635 5636 5636 5637 5637 5637 5637 5636 5635 5634
5590 5592 5593 5594 5595 5596 5598 5599 5600 5601 5603 5604 5605 5606 5607 5608 5609 5610 5611 5612 5614 5615 5616 5617 5619 5620 5621 5622 5623 5624 5625 5626 5627 5628 5628 5629 5629 5629 5629 5629 5629 5628 5627 5626
5583 5585 5586 5588 5589 5590 5592 5593 5594 5595 5597 5598 5599 5600 5601 5603 5603 5604 5605 5606 5608 5609 5610 5611 5612 5613 5614 5615 5616 5617 5618 5619 5620 5620 5621 5621 5622 5622 5622 5621 5621 5620 5619 5618
5577 5579 5580 5582 5582 5584 5585 5587 5588 5589 5591 5592 5593 5594 5595 5597 5598 5599 5600 5601 5602 5603 5604 5605 5606 5607 5608 5609 5610 5611 5611 5612 5613 5613 5613 5614 5614 5614 5613 5613 5612 5611 5610 5609
5570 5571 5573 5575 5576 5577 5578 5580 5581 5583 5584 5585 5587 5588 5589 5590 5591 5593 5594 5595 5596 5597 5598 5598 5599 5600 5601 5602 5602 5603 5604 5604 5605 5605 5605 5605 5606 5605 5605 5605 5604 5602 5601 5599
5562 5564 5566 5567 5569 5570 5571 5573 5574 5576 5577 5578 5580 5581 5582 5583 5584 5586 5587 5588 5589 5590 5591 5591 5592 5593 5593 5594 5595 5595 5596 5596 5596 5597 5597 5597 5597 5597 5596 5595 5594 5593 5592 5590
5555 5556 5558 5559 5561 5562 5564 5565 5567 5568 5569 5571 5572 5573 5575 5576 5577 5578 5579 5580 5581 5582 5583 5584 5584 5585 5585 5586 5587 5587 5587 5587 5588 5588 5588 5588 5587 5587 5586 5586 5584 5583 5581 5580
5547 5548 5549 5550 5552 5553 5555 5557 5558 5560 5561 5563 5564 5566 5567 5568 5569 5570 5571 5572 5573 5573 5574 5575 5575 5576 5577 5577 5578 5578 5578 5578 5578 5578 5578 5578 5578 5577 5576 5575 5574 5573 5571 5569
5538 5538 5539 5540 5541 5543 5545 5548 5550 5552 5553 5555 5556 5557 5558 5560 5560 5561 5562 5563 5564 5564 5565 5566 5566 5567 5568 5568 5568 5569 5569 5569 5569 5568 5568 5568 5567 5567 5566 5565 5563 5562 5560 5558
5531 5531 5531 5531 5532 5533 5536 5539 5542 5544 5545 5547 5548 5549 5550 5551 5552 5552 5553 5554 5554 5555 5555 5556 5557 5557 5558 5558 5558 5559 5559 5558 5558 5558 5558 5557 5557 5556 5555 5554 5553 5551 5549 5547
5527 5526 5526 5526 5526 5528 5530 5532 5534 5536 5538 5539 5540 5541 5541 5542 5543 5543 5544 5544 5545 5545 5546 5546 5547 5547 5547 5548 5548 5548 5548 5548 5548 5548 5547 5547 5546 5545 5544 5543 5542 5540 5538 5536
5524 5524 5523 5523 5524 5525 5526 5527 5528 5530 5531 5532 5532 5533 5533 5533 5534 5534 5534 5535 5535 5535 5536 5536 5536 5537 5537 5538 5538 5538 5538 5538 5538 5537 5536 5536 5535 5534 5533 5532 5531 5529 5527 5525
5521 5521 5520 5520 5521 5521 5521 5522 5522 5523 5524 5524 5525 5525 5525 5525 5525 5525 5525 5526 5526 5526 5526 5526 5527 5527 5527 5527 5528 5528 5527 5527 5527 5526 5526 5525 5524 5523 5522 5521 5520 5518 5516 5514
5517 5516 5516 5516 5516 5516 5516 5516 5516 5517 5517 5518 5518 5518 5518 5518 5518 5517 5517 5517 5517 5517 5517 5517 5517 5517 5517 5517 5517 5517 5517 5517 5516 5516 5515 5514 5513 5512 5511 5510 5509 5507 5505 5503
5511 5511 5511 5511 5511 5511 5511 5511 5511 5511 5511 5511 5511 5511 5511 5511 5510 5510 5509 5509 5508 5508 5508 5508 5508 5508 5508 5507 5507 5507 5507 5506 5506 5505 5504 5503 5502 5501 5500 5499 5498 5496 5494 5492
5505 5505 5504 5504 5504 5504 5504 5504 5504 5505 5505 5505 5504 5504 5504 5503 5503 5502 5502 5501 5500 5500 5499 5499 5499 5499 5498 5498 5497 5497 5497 5496 5495 5494 5494 5493 5492 5491 5490 5489 5487 5485 5484 5481
5498 5497 5497 5497 5497 5497 5497 5497 5497 5498 5498 5498 5497 5497 5497 5496 5495 5495 5494 5493 5492 5492 5491 5491 5490 5490 5489 5488 5488 5487 5486 5486 5485 5484 5483 5482 5482 5480 5479 5478 5476 5475 5473 5471
5490 5490 5490 5490 5490 5489 5490 5490 5490 5490 5490 5490 5490 5490 5489 5488 5488 5487 5486 5485 5485 5484 5483 5482 5482 5481 5480 5479 5478 5477 5477 5476 5475 5474 5473 5472 5471 5470 5469 5467 5466 5464 5462 5460
5480 5481 5481 5481 5481 5481 5481 5481 5482 5482 5482 5482 5482 5481 5481 5480 5479 5479 5478 5477 5476 5475 5474 5473 5473 5472 5471 5470 5469 5468 5467 5466 5465 5464 5463 5462 5461 5460 5458 5457 5455 5454 5451 5449